Other Public Products
Issued by NWS Grand Forks, ND

Home | Current Version | Previous Version | Graphics & Text | Print | Product List | Glossary On
Versions: 1 2 3 4 5 6 7 8 9 10 11 12 13 14 15 16 17 18 19 20 21 22 23 24 25 26 27 28 29 30 31 32 33 34 35 36 37 38 39 40 41 42 43 44 45 46 47 48 49 50
000
FPUS83 KFGF 231131
OPUFGF
PRAIRIE TO PINES WEATHER ROUNDUP
NATIONAL WEATHER SERVICE EASTERN NORTH DAKOTA/GRAND FORKS ND
500 AM CST TUE JAN 23 2018

 **SATELLITE DATA USED TO AUGMENT SKY COVER AT AUTOMATED STATIONS**
 *****  WEATHER ACROSS EASTERN NORTH DAKOTA  *****

CITY           SKY/WX    TMP DP  RH WIND       PRES   REMARKS
GRAND FORKS    CLOUDY    21  16  81 E5        30.06R WCI  15
GRND FORKS AFB CLOUDY    21  16  79 SE6       30.06R WCI  14
GRND FORKS NWS   N/A     19 N/A N/A MISG        N/A
BUXTON           N/A     20  20  99 CALM        N/A
DEVILS LAKE    CLOUDY    19  18  93 S10       30.00F FOG     WCI   8
FARGO          CLOUDY    21  17  84 N5        30.07S WCI  15
WAHPETON ARPT  CLOUDY    23  16  74 N12       30.07R WCI  12
$$

 *****  WEATHER ACROSS CENTRAL AND WESTERN NORTH DAKOTA  *****

CITY           SKY/WX    TMP DP  RH WIND       PRES   REMARKS
JAMESTOWN      CLOUDY    19  18  95 SW8       30.01S WCI   9
BISMARCK       FOG       16  14  92 CALM      30.03R VSB 1/4
MINOT          FAIR      16  12  84 SW9       29.95S WCI   4
MINOT AFB      FAIR       8   5  86 W6        29.94R WCI  -2
GARRISON         N/A      8   5  87 CALM      29.97S
WILLISTON      FAIR      20  15  81 SW7       30.01R WCI  11
DICKINSON      FAIR      24  18  77 W13       29.97S WCI  12
HETTINGER      FAIR      24  18  77 W12       30.02S WCI  13
$$

 *****  OTHER OBSERVATIONS NORTHEAST NORTH DAKOTA  *****

CITY           SKY/WX    TMP DP  RH WIND       PRES   REMARKS
WALHALLA       FAIR      21  21 100 S7        30.04S WCI  13
LANGDON        FOG       19  19 100 SW12      29.99R VSB 1   WCI   7
CAVALIER         N/A     21  18  86 S8        30.05R WCI  12
GRAFTON        CLOUDY    21  18  86 S6        30.08S WCI  14
CANDO          CLOUDY    19  19 100 SW10      30.01R FOG     WCI   8
FORT TOTTEN      N/A     18  17  96 SW3       29.95S
ROLLA          FOG       19  19 100 SW13      29.95S VSB 1/4 WCI   7
RUGBY          CLOUDY    19  19 100 SW8       29.97S FOG     WCI   9
 ***** THE ABOVE OBSERVATIONS ARE NON NWS ARE NOT QUALITY
        CONTROLLED AND MAY MIS-REPORT RAIN FOR SNOW...
$$

 *****  OTHER OBSERVATIONS SOUTHEAST NORTH DAKOTA *****

CITY           SKY/WX    TMP DP  RH WIND       PRES   REMARKS
COOPERSTOWN    CLOUDY    19  19 100 SW7       30.03R WCI  10
VALLEY CITY    CLOUDY    18  18 100 SW6       30.04S WCI   9
OAKES            N/A     18  19 100 N3        30.05S
GWINNER          N/A     19  18  93 CALM      30.06S
SHEYENNE NWR     N/A     21  19  90 N3        29.95S
BUFFALO          N/A     20  16  86 E3          N/A
WYNDMERE       NOT AVBL
 ***** THE ABOVE OBSERVATIONS ARE NON NWS ARE NOT QUALITY
       CONTROLLED AND MAY MIS-REPORT RAIN FOR SNOW...
$$

  *****  WEATHER ACROSS NORTHERN MINNESOTA  *****

CITY           SKY/WX    TMP DP  RH WIND       PRES   REMARKS
FLAG ISLAND    CLOUDY    12   9  85 CALM      30.06S
WARROAD        CLOUDY    16  12  86 E7        30.06S WCI   6
ROSEAU         CLOUDY    19  14  79 E3        30.06R
HALLOCK        CLOUDY    21  16  79 SE5       30.06S WCI  15
THF RVR FALLS  CLOUDY    17  13  84 NE6       30.06S WCI   9
HALSTAD        NOT AVBL
FOSSTON        CLOUDY    18  12  79 N6        30.04R WCI   9
BAUDETTE       CLOUDY    13   9  84 N5        30.05R WCI   5
WASKISH        FAIR      12  10  92 E5        30.05R WCI   4
CROOKSTON      CLOUDY    19  16  86 CALM      30.08S
$$
  *****  WEATHER ACROSS CENTRAL AND WEST MINNESOTA  *****

CITY           SKY/WX    TMP DP  RH WIND       PRES   REMARKS
BEMIDJI        CLOUDY    18  14  84 N6        30.02R WCI   9
PARK RAPIDS    CLOUDY    19  13  77 N13       30.00R WCI   6
WADENA         CLOUDY    18  14  86 N5        30.01R WCI  11
DETROIT LAKES  CLOUDY    21  18  86 NE6       30.02F WCI  14
MOORHEAD       CLOUDY    19  16  86 N6        30.07S WCI  11
FERGUS FALLS   CLOUDY    19  16  86 N7        30.04S WCI  10
ELBOW LAKE     CLOUDY    20  17  85 NW10      30.04R WCI   9
MORRIS MN      CLOUDY    21  18  86 N16       30.03R WCI   7
STAPLES        FAIR      12  10  92 NW8       30.01R WCI   1
WHEATON        NOT AVBL
$$
  *****  WEATHER ELSEWHERE ACROSS MINNESOTA  *****

CITY           SKY/WX    TMP DP  RH WIND       PRES   REMARKS
DULUTH         CLOUDY     9   3  77 N14       29.89R WCI  -7
INTRNTL FALLS  FAIR       6   1  80 N8        30.04S WCI  -7
ELY            FAIR       0  -4  85 CALM      29.96R
CLOQUET        CLOUDY     9   3  78 NW15G21   29.92R WCI  -8
BRAINERD       FAIR      15  11  83 N12       29.99R WCI   2
HIBBING        FAIR       4   1  88 N7        29.97R WCI  -8
ALEXANDRIA     CLOUDY    21  16  81 N14       30.00R WCI   8
SAINT CLOUD    FAIR      19  14  81 N14       29.96R WCI   6
MINNEAPOLIS    FAIR      20  14  77 N10       29.92R WCI   9
$$

  *****  WEATHER ACROSS SOUTH DAKOTA  *****

CITY           SKY/WX    TMP DP  RH WIND       PRES   REMARKS
SIOUX FALLS    CLOUDY    22  20  92 N15       30.03R WCI   9
BROOKINGS      CLOUDY    20  17  88 NW15      30.02S WCI   6
WATERTOWN      CLOUDY    19  18  95 NW10      30.02R FOG     WCI   7
HURON          CLOUDY    20  19  96 NW13      30.08S FOG     WCI   7
SISSETON         N/A     22  19  89 NW12      30.05R WCI  10
ABERDEEN       CLOUDY    19  19 100 NW7       30.07F FOG     WCI  10
MITCHELL       CLOUDY    21  20  96 NW10      30.09S WCI  10
PIERRE         FOG       19  18  95 SW5       30.06R VSB 1/4 WCI  12
MOBRIDGE       FOG       20  17  88 S6        30.01S VSB 1/2 WCI  12
RAPID CITY     CLOUDY    30  25  81 SW3       30.07S
$$

  *****  SOME WEATHER IN NEARBY STATES *****

CITY           SKY/WX    TMP DP  RH WIND       PRES   REMARKS
GLASGOW MT     FAIR      15  11  83 W7        30.05R WCI   5
GREAT FALLS MT FAIR      27  17  66 SW16      30.11R WCI  15
CHEYENNE WY    FAIR      23  12  62 NW10      30.10S WCI  12
SCOTTSBLUFF NE CLOUDY    25  17  72 W10       30.13S WCI  15
OMAHA NE       CLOUDY    26  22  84 NW22G30   30.04R WCI  12
DES MOINES IA  CLOUDY    30  23  75 NW17G31   29.90R WCI  18
DAVENPORT IA   CLOUDY    34  30  85 NW16      29.71R WCI  24
CHICAGO IL     LGT SNOW  33  30  88 NW10      29.57R FOG     WCI  25
EAU CLAIRE WI  CLOUDY    23  19  85 N8        29.80R WCI  14
LA CROSSE WI   LGT SNOW  27  23  85 NW12      29.79R FOG     WCI  17
$$

  *****  SOME NATIONAL WEATHER *****

CITY           SKY/WX    TMP DP  RH WIND       PRES   REMARKS
LA GUARDIA NY  FOG       37  36  96 E7        29.84F VSB<1/4
RALEIGH NC     LGT RAIN  62  62 100 SW16      29.78R
ATLANTA GA     FAIR      49  36  61 W13       29.92R
NEW ORLEANS LA FAIR      49  32  52 NW7       30.12R
OKLAHOMA CITY  FAIR      30  17  58 NW10      30.16R WCI  21
ALBUQUERQUE NM FAIR      23  10  57 N7        30.24R WCI  15
SALT LAKE CITY FAIR      27  23  85 E6        30.34R WCI  20
LOS ANGELES CA FAIR      51  33  50 CALM      30.15F
BOISE ID       FAIR      30  25  81 SE10      30.31S WCI  21
SEATTLE WA     FAIR      41  34  76 SE8       30.18F
$$

*** WEATHER ACROSS MANITOBA...SASKATCHEWAN AND ONTARIO ***
                ***ONTARIO***

CITY           SKY/WX    TMP DP  RH WIND       PRES   REMARKS
GERALDTON      FLURRIES  -8 -13  77 NE9       30.01R WCI -25
THUNDER BAY    CLOUDY    10   1  67 N6        29.97R WCI   1
SIOUX LOOKOUT  CLEAR    -13 -18  77 N2        30.08S
TORONTO        CLOUDY    36  36 100 VRB2      29.50S FOG
BIG TROUT LK   NOT AVBL
PICKLE LAKE    CLEAR    -18 -22  83 N5        30.15  WCI -31
DRYDEN         CLEAR     -2  -6  84 NE10      30.05F WCI -19
KENORA         FLURRIES   9   5  85 E6        30.06R WCI  -1
$$
                *** MANITOBA***

CITY           SKY/WX    TMP DP  RH WIND       PRES   REMARKS
BRANDON        CLOUDY    21  19  93 SW9       29.95F WCI  11
DAUPHIN        CLOUDY    25  21  86 SW9       29.95R WCI  15
ISLAND LAKE    CLEAR    -11 -17  77 E7        30.19F WCI -26
PILOT MOUND      N/A     19  18  93 SW9         N/A  WCI   9
THE PAS        LGT SNOW   5   0  78 NE3       30.01R
THOMPSON       PTCLDY   -18 -26  69 NE6       30.24S WCI -33
WINNIPEG       CLOUDY    21  16  79 S8        30.05S WCI  12
CHURCHILL      CLEAR    -13 -18  77 E8        30.49R WCI -30
GILLAM         CLEAR    -22 -29  69 E5        30.35S WCI -36
$$
                ***SASKATCHEWAN***

CITY           SKY/WX    TMP DP  RH WIND       PRES   REMARKS
ESTEVAN        CLEAR     14  12  92 W14       29.98R WCI  -1
KINDERSLEY     CLEAR     14  10  85 SW6       30.00R WCI   5
LLOYDMINSTER   FOG       16  16 100 NW6       29.98R VSB 1/2 WCI   7
PRINCE ALBERT  LGT SNOW  14  10  85 NW3       29.97S FOG
REGINA         CLOUDY    18  16  93 NW16      30.00R WCI   3
YORKTON        FLURRIES  14  12  92 W16G23    29.96R WCI  -2
N. BATTLEFORD  CLOUDY    21  18  86 W8        30.01R FO


USA.gov is the U.S. government's official web portal to all federal, state and local government web resources and services.